Weather in Prokhory

Russia / Primorsky Krai     44°31′27″N   132°42′03″E
temp.,
°C
wind,
m/s
gust,
m/s
humid.,
%
clouds,
%
prec.,
mm/h
press.,
hPa
HPBL,
m
7 may, fri
fri701:00+11ssw377478 0.3 1004138
04:00+8s35831 0.3 100384
07:00+9s368489 0.0 1001113
10:00+15s466353 0.0 999417
13:00+19ssw81541100 0.0 9961735
16:00+16ssw71351100 0.1 992982
19:00+14sse51064100 0.2 990368
22:00+12se41068100 0.6 989430
8 may, sat
sat801:00+9ssw3787100 0.9 989205
04:00+9wsw51189100 1.2 991727
07:00+9sw61181100 0.1 994574
10:00+12sw676390 0.1 995953
13:00+16ssw71350100 0.0 9941350
16:00+17ssw61351100 0.0 9901403
19:00+12sw5971100 0.1 9911002
22:00+9sw3794100 4.2 990465
9 may, sun
sun901:00+8sw3695100 3.8 989374
04:00+8ssw61095100 8.7 989668
07:00+6nw61097100 6.6 992896
10:00+6wnw4991100 6.9 9951121
13:00+8nw5777100 0.2 9961102
16:00+7wnw4689100 1.0 998866
19:00+6w51093100 2.4 9991107
22:00+5w51096100 5.0 10021101
10 may, mon
mon1001:00+5wnw4897100 2.4 1002995
04:00+4nw6897100 4.4 1004814
07:00+4nw5997100 0.2 1007496
10:00+6nnw5689100 0.3 1008742
13:00+6nw4695100 0.2 1010614
16:00+6nnw3592100 0.3 1011505
19:00+7n2591100 0.0 1012438
22:00+6e1194100 0.0 101314
11 may, tue
tue1101:00+6w1194100 0.0 101414
04:00+5wsw1195100 0.0 101516
07:00+6ne119398 0.0 101584
10:00+8nne228163 0.0 1015562
13:00+11nne226889 0.1 10151126
16:00+13n21597 0.1 10141157
19:00+13nw11680 0.0 1014114
22:00+8se2279100 0.0 101522